[Iaude] MPEC C45: 2024 CL [a=1.51,e=0.49,i=4.1,H=25.0]
    mpec at marsden.cfa.harvard.edu 
    mpec at marsden.cfa.harvard.edu
       
    Mon Feb  5 00:18:08 EST 2024
    
    
  
M.P.E.C. 2024-C45                              Issued 2024 February 5, 05:16 UT
     The Minor Planet Electronic Circulars contain information on unusual
         minor planets, routine data on comets and natural satellites,
         and occasional editorial announcements.  They are published
    on behalf of Division F of the International Astronomical Union by the
          Minor Planet Center, Smithsonian Astrophysical Observatory,
                          Cambridge, MA 02138, U.S.A.
			  
             Prepared using the Tamkin Foundation Computer Network
                              MPC at CFA.HARVARD.EDU
            URL https://www.minorplanetcenter.net/    ISSN 1523-6714
                                    2024 CL                                     
Observations:
     K24C00L 1C2024 01 31.27319 09 02 58.51 +52 17 39.2          21.8 GVEC045G96
     K24C00L 1C2024 01 31.27839 09 02 58.22 +52 16 54.1          20.4 GVEC045G96
     K24C00L 1C2024 01 31.28360 09 02 57.86 +52 16 09.3          20.5 GVEC045G96
     K24C00L* C2024 02 03.41835809 02 58.806+46 16 03.06         21.21wXEC045F52
     K24C00L  C2024 02 03.43141409 02 58.176+46 14 52.33         21.05wXEC045F52
     K24C00L  C2024 02 03.44443509 02 57.517+46 13 41.95         21.48wXEC045F52
     K24C00L  C2024 02 03.55808809 02 52.480+46 03 16.29         21.62GVEC045F52
     K24C00L  C2024 02 03.55873309 02 52.475+46 03 12.43         21.23GVEC045F52
     K24C00L  C2024 02 04.40103309 02 59.187+44 52 29.35         21.50GVEC045F52
     K24C00L  C2024 02 04.40185209 02 59.141+44 52 25.55         20.83GVEC045F52
Observer details:
F52 Pan-STARRS 2, Haleakala.  Observers J. Herman, T. Lowe, P. Minguez, A.
    Schultz, I. Smith.  Measurers K. Chambers, T. de Boer, J. Fairlamb, H.
    Gao, M. Huber, C.-C. Lin, E. Magnier, Y. Ramanjooloo, R. Wainscoat, R.
    Weryk.  1.8-m Ritchey-Chretien + CCD.
G96 Mt. Lemmon Survey.  Observer J. K. Hogan.  Measurers B. Gray, D. Rankin,
    F. C. Shelly.  1.5-m reflector + 10K CCD.
Orbital elements:
2024 CL                                                  Earth MOID = 0.0315 AU
Epoch 2023 Sept. 13.0 TT = JDT 2460200.5                MPC                     
M 315.26634              (2000.0)            P               Q                  
n   0.52886001     Peri.  316.72248     +0.62870124     -0.77439054             
a   1.5144057      Node    94.19489     +0.73150509     +0.55789874             
e   0.4917452      Incl.    4.08767     +0.26388455     +0.29844312             
P   1.86           H   25.00          G   0.15           U   9                  
Residuals in seconds of arc
240131 G96  0.0   0.1+    240203 F52  0.1+  0.2-    240204 F52  0.1+  0.0
240131 G96  0.2+  0.1-    240203 F52  0.1-  0.1-    240204 F52  0.1-  0.0
240131 G96  0.2-  0.0     240203 F52  0.1-  0.2+
240203 F52  0.1+  0.1+    240203 F52  0.1+  0.1-
Ephemeris:
2024 CL                  a,e,i = 1.51, 0.49, 4                   q = 0.7697
Date    TT    R. A. (2000) Decl.     Delta      r    Elong.  Phase     V
2024 01 06    21 00 44.1 -13 45 11   0.1305  0.8715    29.0   146.9    28.2
...
2024 01 21    21 05 37.8 +48 58 19   0.03396 0.9730    70.2   107.9    21.6
...
2024 01 29    09 02 42.7 +59 08 12   0.06328 1.0334   138.9    38.8    20.6
...
2024 02 04    09 02 57.6 +45 24 49   0.1063  1.0800   151.1    26.2    21.5
2024 02 05    09 02 57.4 +44 06 00   0.1139  1.0878   152.1    25.1    21.6
2024 02 06    09 02 57.5 +42 56 07   0.1216  1.0957   152.9    24.2    21.8
...
2024 02 12    09 03 12.2 +37 57 00   0.1698  1.1430   154.8    21.6    22.5
...
2024 02 20    09 04 36.2 +33 58 04   0.2389  1.2060   152.8    22.0    23.4
...
2024 03 06    09 11 01.1 +29 19 31   0.3846  1.3223   143.9    26.3    24.7
A. U. Tomatic                (C) Copyright 2024 MPC           M.P.E.C. 2024-C45
    
    
More information about the Iaude
mailing list